Location: Unspecified
(40.7945°N, 111.1337°W)
Time: 00:36:51
(UTC-06:00)

Vanguard 1 - Pass Details

Date: 02 July 2019
Orbit: 653 x 3830 km, 34.3° (Epoch: 17 July)

Event Time Altitude Azimuth Distance (km) Brightness Sun altitude
Rises 00:11:15 0° 223° (SW) 7,523 14.3 -23.7°
Reaches altitude 10° 00:16:20 10° 219° (SW) 6,719 14.0 -24.0°
Maximum altitude 00:38:05 50° 152° (SSE) 4,303 12.8 -25.1°
Drops below altitude 10° 00:55:57 10° 85° (E) 5,669 13.9 -25.7°
Sets 00:59:44 0° 80° (E) 6,334 14.2 -25.8°
